• In Netherlands
  • List of Countries
  • For 7 days
  • Water Temperature
  • Satellite Maps
  • Weather Map
  • Weather Widgets
  • user-avatar
    Login

    Hourly Weather Golden Sands

    Today, 28 June, Wednesday

    Time Temperature Precipitation Wind Pressure Humidity
    00:00 +20°C° 0 mm 1 mps 758 mmHg 91%
    01:00 +20°C° 0 mm 1 mps 758 mmHg 92%
    02:00 +18°C° 0 mm 0 mps 758 mmHg 92%
    03:00 +18°C° 0 mm 0 mps 758 mmHg 92%
    04:00 +18°C° 0 mm 0 mps 758 mmHg 92%
    05:00 +18°C° 0 mm 0 mps 758 mmHg 92%
    06:00 +22°C° 0 mm 1 mps 758 mmHg 85%
    07:00 +24°C° 0 mm 1 mps 758 mmHg 78%
    08:00 +26°C° 0 mm 1 mps 758 mmHg 71%
    09:00 +27°C° 0 mm 1 mps 758 mmHg 66%
    10:00 +28°C° 0 mm 2 mps 758 mmHg 61%
    11:00 +29°C° 0 mm 2 mps 758 mmHg 57%
    12:00 +30°C° 0 mm 2 mps 758 mmHg 56%
    13:00 +30°C° 0 mm 3 mps 758 mmHg 56%
    14:00 +30°C° 0 mm 3 mps 758 mmHg 56%
    15:00 +30°C° 0 mm 3 mps 757 mmHg 59%
    16:00 +29°C° 0 mm 3 mps 757 mmHg 61%
    17:00 +29°C° 0 mm 4 mps 757 mmHg 64%
    18:00 +27°C° 0 mm 3 mps 757 mmHg 71%
    19:00 +25°C° 0 mm 3 mps 757 mmHg 79%
    20:00 +22°C° 0 mm 3 mps 757 mmHg 86%
    21:00 +22°C° 0 mm 3 mps 757 mmHg 88%
    22:00 +22°C° 0 mm 3 mps 757 mmHg 89%
    23:00 +21°C° 0 mm 3 mps 757 mmHg 91%

    Tomorrow, 29 June, Thursday

    Time Temperature Precipitation Wind Pressure Humidity
    00:00 +21°C° 0 mm 3 mps 757 mmHg 91%
    01:00 +21°C° 0 mm 3 mps 757 mmHg 92%
    02:00 +21°C° 0 mm 3 mps 757 mmHg 92%
    03:00 +21°C° 0 mm 3 mps 757 mmHg 92%
    04:00 +21°C° 0 mm 3 mps 757 mmHg 92%
    05:00 +21°C° 0 mm 3 mps 757 mmHg 92%
    06:00 +24°C° 0 mm 3 mps 757 mmHg 85%
    07:00 +26°C° 0 mm 4 mps 757 mmHg 78%
    08:00 +28°C° 0 mm 4 mps 758 mmHg 71%
    09:00 +29°C° 0 mm 4 mps 758 mmHg 67%
    10:00 +30°C° 0 mm 5 mps 758 mmHg 63%
    11:00 +32°C° 0 mm 5 mps 758 mmHg 59%
    12:00 +32°C° 0 mm 5 mps 757 mmHg 58%
    13:00 +33°C° 0 mm 6 mps 757 mmHg 57%
    14:00 +33°C° 0 mm 6 mps 757 mmHg 55%
    15:00 +32°C° 0 mm 6 mps 756 mmHg 57%
    16:00 +32°C° 0 mm 6 mps 756 mmHg 60%
    17:00 +30°C° 0 mm 6 mps 756 mmHg 62%
    18:00 +28°C° 0 mm 6 mps 756 mmHg 67%
    19:00 +27°C° 0 mm 6 mps 756 mmHg 73%
    20:00 +26°C° 0 mm 5 mps 756 mmHg 78%
    21:00 +24°C° 0 mm 6 mps 756 mmHg 78%
    22:00 +24°C° 0 mm 6 mps 756 mmHg 78%
    23:00 +24°C° 0 mm 7 mps 756 mmHg 79%

    Day after tomorrow, 30 June, Friday

    Time Temperature Precipitation Wind Pressure Humidity
    00:00 +24°C° 0 mm 6 mps 756 mmHg 79%
    01:00 +24°C° 0 mm 6 mps 756 mmHg 79%
    02:00 +24°C° 0 mm 6 mps 756 mmHg 80%
    03:00 +25°C° 0 mm 5 mps 756 mmHg 79%
    04:00 +25°C° 0 mm 5 mps 756 mmHg 79%
    05:00 +25°C° 0 mm 4 mps 756 mmHg 79%
    06:00 +27°C° 0 mm 4 mps 757 mmHg 69%
    07:00 +29°C° 0 mm 3 mps 757 mmHg 59%
    08:00 +31°C° 0 mm 2 mps 757 mmHg 49%
    09:00 +34°C° 0 mm 2 mps 757 mmHg 43%
    10:00 +36°C° 0 mm 2 mps 758 mmHg 38%
    11:00 +37°C° 0 mm 1 mps 758 mmHg 32%
    12:00 +38°C° 0 mm 2 mps 758 mmHg 31%
    13:00 +39°C° 0 mm 2 mps 757 mmHg 30%
    14:00 +39°C° 0 mm 2 mps 757 mmHg 28%
    15:00 +39°C° 0 mm 3 mps 757 mmHg 30%
    16:00 +38°C° 0 mm 3 mps 757 mmHg 32%
    17:00 +37°C° 0 mm 4 mps 757 mmHg 34%
    18:00 +35°C° 0 mm 4 mps 757 mmHg 40%
    19:00 +32°C° 0 mm 4 mps 757 mmHg 46%
    20:00 +28°C° 0 mm 4 mps 757 mmHg 52%
    21:00 +28°C° 0 mm 3 mps 758 mmHg 54%
    22:00 +27°C° 0 mm 3 mps 758 mmHg 55%
    23:00 +27°C° 0 mm 3 mps 758 mmHg 57%

    1 July, Saturday

    Time Temperature Precipitation Wind Pressure Humidity
    00:00 +26°C° 0 mm 2 mps 758 mmHg 58%
    01:00 +26°C° 0 mm 2 mps 758 mmHg 59%
    02:00 +26°C° 0 mm 2 mps 758 mmHg 61%
    03:00 +26°C° 0 mm 2 mps 758 mmHg 60%
    04:00 +26°C° 0 mm 1 mps 758 mmHg 60%
    05:00 +25°C° 0 mm 1 mps 758 mmHg 60%
    06:00 +28°C° 0 mm 2 mps 758 mmHg 54%
    07:00 +30°C° 0 mm 2 mps 758 mmHg 49%
    08:00 +34°C° 0 mm 3 mps 758 mmHg 43%
    09:00 +34°C° 0 mm 3 mps 758 mmHg 41%
    10:00 +35°C° 0 mm 4 mps 758 mmHg 39%
    11:00 +36°C° 0 mm 4 mps 758 mmHg 37%
    12:00 +36°C° 0 mm 4 mps 758 mmHg 37%
    13:00 +36°C° 0 mm 4 mps 757 mmHg 36%
    14:00 +36°C° 0 mm 4 mps 757 mmHg 36%
    15:00 +35°C° 0 mm 4 mps 757 mmHg 38%
    16:00 +35°C° 0 mm 4 mps 757 mmHg 40%
    17:00 +34°C° 0 mm 4 mps 756 mmHg 43%
    18:00 +30°C° 0 mm 4 mps 756 mmHg 50%
    19:00 +28°C° 0 mm 4 mps 756 mmHg 57%
    20:00 +26°C° 0 mm 4 mps 756 mmHg 64%
    21:00 +25°C° 0 mm 4 mps 756 mmHg 66%
    22:00 +25°C° 0 mm 4 mps 756 mmHg 68%
    23:00 +25°C° 0 mm 3 mps 756 mmHg 71%

    2 July, Sunday

    Time Temperature Precipitation Wind Pressure Humidity
    00:00 +24°C° 0 mm 3 mps 755 mmHg 74%
    01:00 +24°C° 0 mm 3 mps 755 mmHg 78%
    02:00 +24°C° 0 mm 3 mps 754 mmHg 82%
    03:00 +24°C° 0 mm 2 mps 754 mmHg 83%
    04:00 +23°C° 0 mm 2 mps 754 mmHg 84%
    05:00 +23°C° 0 mm 2 mps 754 mmHg 84%
    06:00 +25°C° 0 mm 2 mps 754 mmHg 75%
    07:00 +27°C° 0 mm 2 mps 754 mmHg 66%
    08:00 +30°C° 0 mm 2 mps 754 mmHg 57%
    09:00 +31°C° 0 mm 3 mps 754 mmHg 54%
    10:00 +33°C° 0 mm 4 mps 753 mmHg 51%
    11:00 +34°C° 0 mm 4 mps 753 mmHg 48%
    12:00 +34°C° 0 mm 5 mps 753 mmHg 48%
    13:00 +34°C° 0 mm 5 mps 753 mmHg 47%
    14:00 +34°C° 0 mm 5 mps 752 mmHg 47%
    15:00 +33°C° 0 mm 5 mps 752 mmHg 51%
    16:00 +33°C° 0 mm 5 mps 752 mmHg 54%
    17:00 +32°C° 0 mm 5 mps 751 mmHg 58%
    18:00 +29°C° 0 mm 4 mps 751 mmHg 66%
    19:00 +27°C° 0 mm 4 mps 751 mmHg 74%
    20:00 +25°C° 0 mm 3 mps 751 mmHg 82%
    21:00 +24°C° 0 mm 3 mps 751 mmHg 83%
    22:00 +24°C° 0 mm 3 mps 751 mmHg 85%
    23:00 +22°C° 0 mm 3 mps 751 mmHg 86%

    3 July, Monday

    Time Temperature Precipitation Wind Pressure Humidity
    00:00 +22°C° 0 mm 3 mps 751 mmHg 85%
    01:00 +22°C° 0 mm 3 mps 751 mmHg 84%
    02:00 +22°C° 0 mm 3 mps 751 mmHg 83%
    03:00 +22°C° 0 mm 4 mps 751 mmHg 83%
    04:00 +22°C° 0 mm 5 mps 751 mmHg 84%
    05:00 +22°C° 0 mm 6 mps 751 mmHg 84%
    06:00 +24°C° 0 mm 6 mps 751 mmHg 79%
    07:00 +26°C° 0 mm 7 mps 751 mmHg 75%
    08:00 +27°C° 0 mm 8 mps 751 mmHg 71%
    09:00 +28°C° 0 mm 8 mps 751 mmHg 66%
    10:00 +29°C° 0 mm 8 mps 751 mmHg 61%
    11:00 +31°C° 0 mm 8 mps 751 mmHg 55%
    12:00 +32°C° 0 mm 8 mps 750 mmHg 55%
    13:00 +32°C° 0 mm 7 mps 750 mmHg 54%
    14:00 +33°C° 0 mm 6 mps 750 mmHg 54%
    15:00 +32°C° 0 mm 6 mps 750 mmHg 56%
    16:00 +30°C° 0 mm 5 mps 750 mmHg 59%
    17:00 +29°C° 0 mm 5 mps 750 mmHg 62%
    18:00 +28°C° 0.1 mm 5 mps 751 mmHg 67%
    19:00 +26°C° 0.1 mm 5 mps 751 mmHg 72%
    20:00 +25°C° 0.1 mm 4 mps 751 mmHg 78%
    21:00 +23°C° 0.1 mm 6 mps 751 mmHg 79%
    22:00 +22°C° 0.1 mm 8 mps 751 mmHg 80%
    23:00 +21°C° 0.1 mm 10 mps 752 mmHg 82%
    Show more